Погода в Заречном

Россия / Кабардино-Балкарская Республика     43°56′10″N   43°51′25″E
темп.,
°C
ветер,
м/с
пор.,
м/с
влажн.,
%
обл.,
%
осадки,
мм/ч
давл.,
гПа
погр.,
м
4 августа, ср
ср400:00+24зсз34440 0.0 101247
03:00+23з34480 0.0 101245
06:00+23зюз23540 0.0 101346
09:00+30сз45390 0.0 1013731
12:00+35ссз53290 0.0 10132176
15:00+36ссз422447 0.0 10113162
18:00+33с2230100 0.0 101137
21:00+25юз101361100 0.5 1013198
5 августа, чт
чт500:00+24юз3454100 0.3 101374
03:00+21з4673100 1.4 101391
06:00+20сз3684100 2.1 1015126
09:00+27сз335588 2.8 1015566
12:00+32св22340 0.0 10131584
15:00+35вюв33269 0.0 10112492
18:00+33юз23341 0.0 1010256
21:00+26зюз33531 0.0 101143
6 августа, пт
пт600:00+24вюв23570 0.0 101147
03:00+22юв22590 0.0 101026
06:00+22вюв27590 0.0 1011181
09:00+29вюв57440 0.0 1011880
12:00+34вюв78310 0.0 10091674
15:00+37вюв68220 0.0 10062427
18:00+35в811240 0.0 10051164
21:00+28в71439100 0.0 1007513
7 августа, сб
сб700:00+24вюв41056100 0.0 1006286
03:00+21всв2272100 0.0 100622
06:00+21св12775 0.0 100694
09:00+28в34535 0.0 1005684
12:00+34в443114 0.0 10041348
15:00+37юв332454 0.0 10021860
18:00+34зюз5630100 0.0 1003296
21:00+27сз51144100 0.2 1006306
8 августа, вс
вс800:00+24сз41161100 0.1 1007296
03:00+22з22678 0.1 100724
06:00+23зсз38650 0.0 1009192
09:00+32сз45350 0.0 1009993
12:00+36сз44270 0.0 10081721
15:00+38ссз53233 0.0 10072555
18:00+36с22263 0.0 10081003
21:00+26сз6105999 0.9 1011252